FLOCK 4Q 26

导读

FLOCK 4Q 26是美国行星实验室研制的"鸽群"Flock系列遥感卫星之一,于北京时间2023年11月11日发射升空。作为小卫星星座的组成部分,它延续了该系列高分辨率对地成像的设计特点,运行在近地轨道,为农业监测、城市规划、灾害评估和地理信息更新等领域提供商业遥感数据,延续了美国商业航天低成本批量构建卫星遥感网络的发展路线。

基本信息
目录编号:
58284
目录名称:
FLOCK 4Q 26
国际标识:
2023-174AE
轨道中心:
EARTH
卫星名称:
FLOCK 4Q 26
卫星全名:
--
卫星状态:
在轨 (已飞行943 天)
发射日期:
2023-11-11 UTC
国别 :
美国 (US)
星等 :
--
轨道信息
数据来源 国际轨道数据
星历时间: 2026-06-11T13:32:19+0800
14小时前
查看轨道信息
半长轴: 6773.349km
偏心率: 0.0006496
轨道倾角: 97.387°
近地点辐角 170.260°
升交点赤经 254.490°
平近点角 189.878°
近地点: 390.812km
远地点: 399.612km
周期: 92.462分钟
每日圈数: 15.57391
详细信息
使用方式:
暂无
2D轨道图
3D轨道图
轨道高度分析图
轨道倾角分析图
轨道综合分析图
查看轨道综合分析图